Tracking 31011 objects as of 11-Jul-2025
HD Live streaming from Space Station
objects crossing your sky now

SL-14 DEB

Track SL-14 DEB now!
10-day predictions


NORAD ID: 45289
Int'l Code: 1991-056AB
Perigee: 1,198.9 km
Apogee: 1,474.1 km
Inclination: 82.5 °
Period: 112.2 minutes
Semi major axis: 7707 km
RCS: Unknown
Launch date: August 15, 1991
Source: Commonwealth of Independent States (former USSR) (CIS)
Launch site: PLESETSK MISSILE AND SPACE COMPLEX (PKMTR)

Note: This is SATELLITE DEBRIS
Your satellite tracking list
Your tracking list is empty




NASA's NSSDC Master Catalog

Two Line Element Set (TLE):
1 45289U 91056AB  25192.23344120  .00000956  00000-0  37293-2 0  9993
2 45289  82.5369  99.1931 0178538 301.1990  57.1718 12.83012146252534
Source of the keplerian elements: AFSPC